[[{"header":{"parameterUnit":"m.s-1","parameterCategory":1,"la1":30.2991,"la2":30.254,"lo1":-89.0895,"lo2":-89.0444,"dy":0.0017,"dx":0.0017,"nx":28,"ny":28,"refTime":"2023-06-28T21:00:00:Z","depth":0,"parameterNumber":2,"parameterNumberName":"U-component_of_WINDS"},"data":[0,0,0,0,0,0,0,0,0,0,0,0,0,0,0,0,0,0,0,0,0,0,0,0,0,0,0,0,0,0,0,0,0,0,0,0,0,0,0,0,0,0,0,0,0,0,0,0,0,0,0,0,0,0,0,0,0,0,1.6078,1.6076,0,1.5912,1.591,1.5908,1.571,1.5707,1.5704,1.5701,1.553,1.5528,1.5526,0,0,0,0,0,0,0,0,0,0,0,0,0,1.6225,1.6223,1.6078,1.6076,1.6074,1.5912,1.591,1.5908,1.5711,1.5707,1.5703,1.57,1.553,1.5528,1.5526,0,0,0,0,0,0,0,0,0,0,0,0,0,1.612,1.6223,1.6079,1.5956,1.5944,1.5913,1.591,1.5907,1.5711,1.5707,1.5702,1.5698,1.5531,1.5528,1.5526,1.5601,0,0,1.5518,1.5517,0,0,0,0,0,0,0,0,1.6127,1.6115,1.5976,1.5965,1.5951,1.5827,1.5898,1.5804,1.5713,1.58,1.5701,1.5696,1.5632,1.5621,1.56,1.5593,1.5586,1.5518,1.5516,1.5515,1.5514,0,0,0,0,0,0,0,1.6134,1.6121,1.6012,1.5975,1.5959,1.591,1.589,1.588,1.5744,1.5792,1.5777,1.576,1.5624,1.5603,1.5594,1.5583,1.5518,1.5515,1.5514,1.5513,1.563,1.5634,0,0,0,0,0,0,1.616,1.6129,1.6017,1.6007,1.6029,1.5911,1.5888,1.5871,1.5743,1.5719,1.5764,1.5751,1.5609,1.5598,1.5588,1.5666,1.5515,1.5513,1.5511,1.5625,1.5631,1.5636,0,0,0,0,0,0,1.6164,1.6152,1.6024,1.6064,1.6044,1.5913,1.5895,1.587,1.5848,1.5722,1.5697,1.5767,1.5605,1.5591,1.5599,1.5658,1.5511,1.5509,1.562,1.5627,1.5633,1.5826,0,0,0,0,0,0,1.6169,1.6154,1.6182,1.6066,1.6043,1.604,1.5899,1.587,1.5845,1.5827,1.5718,1.5696,1.5601,1.5604,1.5597,1.5652,1.5507,1.5614,1.5623,1.5631,1.5814,1.5839,1.586,0,0,0,0,0,1.6175,1.6242,1.6184,1.6172,1.6074,1.6043,1.603,1.5919,1.585,1.5876,1.5795,1.5699,1.5653,1.5607,1.5597,1.5652,1.5609,1.562,1.563,1.5804,1.5834,1.586,0,0,0,0,0,0,1.6367,1.6225,1.6159,1.6191,1.6131,1.601,1.6039,1.5955,1.5913,1.5897,1.5761,1.5739,1.5763,1.5708,1.5659,1.5718,1.5617,1.5626,1.5753,1.578,1.5803,1.5815,1.5505,0,0,0,0,0,1.6414,1.6401,1.6277,1.6318,1.6291,1.6172,1.6154,1.6074,1.6006,1.5979,1.5898,1.5836,1.5807,1.5791,1.5757,1.5806,1.5779,1.5839,1.5862,1.5882,1.589,1.5912,1.5937,1.567,1.567,1.567,0,0,1.6509,1.643,1.643,1.6355,1.6298,1.6288,1.6151,1.6146,1.6136,1.5978,1.598,1.592,1.5841,1.587,1.5878,1.5825,1.5959,1.5895,1.5912,1.5909,1.5925,1.595,1.5973,1.5677,1.5676,1.5675,0,0,1.6677,1.6617,1.6643,1.6591,1.6508,1.6428,1.6435,1.6327,1.6281,1.6282,1.6163,1.615,1.6103,1.6052,1.602,1.6171,1.6081,1.6164,1.6285,1.6307,1.6328,1.6346,1.6399,1.642,1.6174,1.6174,1.6175,0,1.6806,1.6786,1.6668,1.667,1.664,1.6498,1.6524,1.6478,1.6389,1.6372,1.6314,1.6252,1.6189,1.6204,1.6241,1.622,1.6223,1.6175,1.6335,1.6351,1.6366,1.6415,1.6436,1.6185,1.6184,1.6183,1.6182,0,1.6948,1.6936,1.6968,1.6886,1.686,1.6874,1.6759,1.6747,1.667,1.6597,1.6599,1.6519,1.6467,1.6465,1.6389,1.6469,1.6438,1.636,1.6255,1.6404,1.6448,1.6466,1.62,1.6196,1.6193,1.619,0,0,1.723,1.7085,1.7098,1.7059,1.6959,1.6947,1.6956,1.6905,1.6897,1.6841,1.6844,1.6809,1.6736,1.67,1.6618,1.6638,1.6762,1.6555,1.6552,1.6596,1.6844,1.6903,1.6927,1.6703,1.6706,1.6708,1.6851,0,1.7379,1.7385,1.728,1.7314,1.7302,1.7168,1.7175,1.7114,1.7046,1.7026,1.695,1.6927,1.6832,1.681,1.6824,1.6744,1.681,1.6733,1.6703,1.6704,1.6726,1.695,1.7012,1.715,1.6867,1.687,1.6872,0,1.7552,1.7507,1.7541,1.744,1.743,1.7439,1.7384,1.7367,1.7295,1.7244,1.7206,1.7113,1.7113,1.7017,1.7016,1.6966,1.6948,1.6908,1.691,1.6902,1.6796,1.6947,1.7191,1.7212,1.6898,1.6896,1.6894,0,1.7754,1.7701,1.7715,1.7686,1.7568,1.7578,1.7529,1.7453,1.743,1.7383,1.7366,1.732,1.7295,1.7261,1.7158,1.7097,1.7169,1.7064,1.7126,1.7129,1.7146,1.7146,1.739,1.7138,1.7137,1.7137,1.7137,0,1.7929,1.7955,1.7804,1.7812,1.7837,1.7717,1.7745,1.7683,1.7617,1.7611,1.7492,1.7489,1.7353,1.7335,1.7255,1.7266,1.7255,1.7214,1.7192,1.7224,1.7229,1.7209,1.7196,1.7142,1.7141,1.714,1.7139,0,1.8157,1.8057,1.8063,1.7952,1.7925,1.7948,1.7852,1.7855,1.7781,1.7775,1.7767,1.765,1.7622,1.7517,1.7463,1.7409,1.7446,1.7404,1.747,1.7456,1.7524,1.7519,1.7762,1.7788,1.7522,1.7524,1.7527,0,1.8275,1.8292,1.8183,1.8171,1.8128,1.811,1.8086,1.7969,1.7949,1.787,1.7883,1.7845,1.7809,1.7771,1.7681,1.764,1.7595,1.7684,1.7588,1.762,1.7595,1.7595,1.7596,1.7704,1.7707,1.771,1.7713,0,1.8495,1.8445,1.8415,1.8369,1.8344,1.8302,1.8252,1.8249,1.8119,1.8102,1.8073,1.8045,1.7991,1.7956,1.79,1.7849,1.776,1.7744,1.7756,1.7787,1.7825,1.7804,1.7525,1.7738,1.7736,1.7734,1.7732,1.7731,1.8669,1.8678,1.8604,1.8575,1.8526,1.8483,1.8481,1.8407,1.8381,1.8328,1.8261,1.824,1.8169,1.8085,1.8041,1.8023,1.7973,1.7991,1.7995,1.8001,1.8016,1.783,1.8013,1.8012,1.8011,1.801,1.801,0,1.8881,1.8827,1.8802,1.8738,1.8716,1.8635,1.8577,1.8563,1.8547,1.8488,1.8456,1.8423,1.8388,1.8297,1.8254,1.8257,1.8215,1.8249,1.8247,1.8236,1.8064,1.8057,1.8284,1.8284,1.8284,1.8284,1.8284,1.8284,1.8989,1.8999,1.8941,1.8927,1.8872,1.8851,1.8825,1.8785,1.8738,1.8706,1.8678,1.8619,1.8547,1.8498,1.8463,1.8437,1.8426,1.8474,1.8435,1.8275,1.8249,1.8223,1.8216,1.8473,1.8473,1.8608,1.861,1.8611]},{"header":{"parameterUnit":"m.s-1","parameterCategory":1,"la1":30.2991,"la2":30.254,"lo1":-89.0895,"lo2":-89.0444,"dy":0.0017,"dx":0.0017,"nx":28,"ny":28,"refTime":"2023-06-28T21:00:00:Z","depth":0,"parameterNumber":3,"parameterNumberName":"V-component_of_WINDS"},"data":[0,0,0,0,0,0,0,0,0,0,0,0,0,0,0,0,0,0,0,0,0,0,0,0,0,0,0,0,0,0,0,0,0,0,0,0,0,0,0,0,0,0,0,0,0,0,0,0,0,0,0,0,0,0,0,0,0,0,0.6043,0.6044,0,0.6122,0.6123,0.6123,0.6124,0.6123,0.6122,0.6121,0.6203,0.6206,0.6209,0,0,0,0,0,0,0,0,0,0,0,0,0,0.5892,0.5895,0.6043,0.6044,0.6045,0.6122,0.6123,0.6124,0.6124,0.6123,0.6121,0.612,0.6202,0.6206,0.621,0,0,0,0,0,0,0,0,0,0,0,0,0,0.5963,0.5896,0.6043,0.6054,0.6056,0.6121,0.6123,0.6124,0.6124,0.6123,0.6121,0.612,0.6201,0.6205,0.621,0.627,0,0,0.6224,0.6226,0,0,0,0,0,0,0,0,0.5959,0.5969,0.6051,0.6053,0.6055,0.6111,0.61,0.6173,0.6125,0.6098,0.6121,0.6119,0.6174,0.6181,0.6199,0.6274,0.6277,0.6225,0.6228,0.623,0.6231,0,0,0,0,0,0,0,0.5954,0.5965,0.6074,0.6053,0.6055,0.6055,0.6064,0.6114,0.6144,0.61,0.6101,0.611,0.6175,0.6194,0.6201,0.6278,0.6225,0.6229,0.6232,0.6234,0.6404,0.6406,0,0,0,0,0,0,0.5947,0.5961,0.6071,0.6076,0.6002,0.6059,0.6069,0.6095,0.6143,0.6149,0.6111,0.611,0.6187,0.6195,0.6204,0.6276,0.623,0.6234,0.6237,0.6402,0.6405,0.6406,0,0,0,0,0,0,0.5944,0.5957,0.6068,0.6019,0.6033,0.6063,0.6093,0.6097,0.6117,0.6151,0.6157,0.6126,0.6186,0.6197,0.6253,0.6279,0.6236,0.6241,0.64,0.6403,0.6405,0.6421,0,0,0,0,0,0,0.5939,0.5956,0.5979,0.6019,0.6036,0.6116,0.6095,0.61,0.6125,0.6124,0.6166,0.6172,0.6186,0.6246,0.6258,0.6285,0.6244,0.6398,0.6402,0.6405,0.6419,0.6424,0.6429,0,0,0,0,0,0.5934,0.5981,0.598,0.5993,0.6065,0.6118,0.6127,0.6142,0.6127,0.615,0.6172,0.6171,0.6274,0.6252,0.6265,0.6294,0.6397,0.6401,0.6404,0.6416,0.6423,0.6429,0,0,0,0,0,0,0.5944,0.5986,0.5986,0.6047,0.6079,0.6118,0.6148,0.6149,0.6185,0.6183,0.62,0.6209,0.6264,0.6285,0.6259,0.6353,0.6333,0.634,0.6338,0.6345,0.635,0.6344,0.6248,0,0,0,0,0,0.5953,0.5992,0.6027,0.6078,0.6093,0.6118,0.6141,0.6149,0.6183,0.6196,0.6222,0.6255,0.6295,0.6321,0.6359,0.6421,0.643,0.6447,0.6452,0.6456,0.6462,0.6495,0.6503,0.6419,0.6419,0.6419,0,0,0.5973,0.6001,0.6024,0.608,0.6106,0.6145,0.6129,0.6172,0.6202,0.6203,0.6257,0.6277,0.6315,0.6373,0.64,0.6392,0.6487,0.6461,0.6464,0.6468,0.6499,0.6507,0.6514,0.6422,0.6421,0.6421,0,0,0.6029,0.6054,0.6098,0.6123,0.6161,0.6177,0.6187,0.6226,0.6239,0.6293,0.6294,0.6329,0.6398,0.6424,0.6446,0.6509,0.6509,0.6521,0.6548,0.658,0.6587,0.6593,0.6615,0.6622,0.6527,0.6527,0.6527,0,0.6049,0.6108,0.6121,0.6164,0.6188,0.6189,0.6234,0.6258,0.6307,0.6324,0.6313,0.6397,0.6423,0.6487,0.6502,0.652,0.6532,0.6517,0.6585,0.6591,0.6596,0.6617,0.6626,0.6528,0.6528,0.6528,0.6528,0,0.613,0.6171,0.6202,0.6248,0.6276,0.6319,0.6339,0.6365,0.637,0.6387,0.6441,0.6471,0.6515,0.6531,0.6537,0.6595,0.6588,0.6581,0.6562,0.6605,0.6625,0.6634,0.653,0.653,0.6529,0.6529,0,0,0.6196,0.6247,0.6258,0.6278,0.6319,0.6351,0.6394,0.6436,0.6458,0.6491,0.6527,0.6584,0.6576,0.6602,0.661,0.6638,0.6685,0.6627,0.6628,0.6637,0.675,0.6756,0.6765,0.6685,0.6686,0.6688,0.6747,0,0.6256,0.6332,0.6344,0.6411,0.6449,0.645,0.6487,0.6516,0.6532,0.6566,0.6584,0.6623,0.6611,0.6626,0.6653,0.6674,0.6708,0.6669,0.6718,0.672,0.6709,0.6776,0.6782,0.6837,0.6755,0.6756,0.6757,0,0.6337,0.6371,0.6441,0.6475,0.6491,0.6525,0.6563,0.6596,0.6628,0.6638,0.6665,0.6669,0.6713,0.6691,0.6752,0.6725,0.6746,0.6758,0.6761,0.6767,0.6742,0.6783,0.6855,0.6863,0.677,0.6769,0.6768,0,0.6378,0.6441,0.649,0.6508,0.6549,0.6572,0.659,0.6621,0.6645,0.6678,0.6694,0.6732,0.6754,0.6783,0.6798,0.6781,0.6857,0.6837,0.6866,0.6866,0.6883,0.6882,0.6959,0.6896,0.6896,0.6895,0.6895,0,0.6444,0.6486,0.6509,0.654,0.6587,0.66,0.6647,0.6664,0.6691,0.6725,0.6728,0.676,0.6777,0.6812,0.6823,0.6871,0.6881,0.689,0.6892,0.689,0.6888,0.6904,0.69,0.6898,0.6897,0.6897,0.6896,0,0.6497,0.6514,0.6568,0.6602,0.6611,0.6645,0.6674,0.6703,0.6718,0.6761,0.6772,0.6795,0.6836,0.6853,0.6903,0.691,0.6965,0.6965,0.6954,0.6955,0.6983,0.698,0.7074,0.7086,0.7014,0.7015,0.7015,0,0.6539,0.6571,0.6608,0.663,0.6649,0.6685,0.6709,0.6722,0.6747,0.6785,0.681,0.685,0.6883,0.6946,0.6968,0.7006,0.7007,0.7037,0.7013,0.7008,0.7007,0.7005,0.7008,0.7041,0.7042,0.7043,0.7043,0,0.661,0.6616,0.665,0.6686,0.6714,0.6744,0.6773,0.6791,0.6809,0.6836,0.6877,0.6902,0.6952,0.6991,0.703,0.7048,0.7049,0.705,0.7059,0.7057,0.7049,0.7053,0.6966,0.7048,0.7048,0.7048,0.7047,0.7047,0.6658,0.6687,0.6716,0.6754,0.6776,0.6803,0.6832,0.685,0.6883,0.6925,0.693,0.6973,0.7003,0.7055,0.7075,0.7109,0.7101,0.7114,0.7117,0.712,0.7122,0.7043,0.7116,0.7116,0.7115,0.7115,0.7115,0,0.6729,0.6748,0.6782,0.6821,0.685,0.6847,0.6878,0.6903,0.6941,0.6968,0.7,0.7046,0.7083,0.7107,0.7145,0.7167,0.7168,0.7177,0.7176,0.718,0.7127,0.7115,0.7175,0.7175,0.7175,0.7175,0.7175,0.7175,0.677,0.6817,0.6826,0.6885,0.6903,0.6945,0.6963,0.6987,0.7009,0.706,0.7091,0.7106,0.7132,0.7171,0.7205,0.7211,0.7225,0.7234,0.7239,0.719,0.7184,0.7178,0.7167,0.7237,0.7237,0.729,0.729,0.7291]}]]